Regional Weather Roundup
Issued by NWS Raleigh/Durham, NC

Home | Current Version | Previous Version | Text Only | Print | Product List | Glossary On
Versions: 1 2 3 4 5 6 7 8 9 10 11 12 13 14 15 16 17 18 19 20 21 22 23 24 25 26 27 28 29 30 31 32 33 34 35 36 37 38 39 40 41 42 43 44 45 46 47 48 49 50
000
ASUS42 KRAH 052310
RWRRAH
NORTH CAROLINA WEATHER ROUNDUP
NATIONAL WEATHER SERVICE RALEIGH NC
600 PM EST THU MAR 05 2015

NOTE: "FAIR" INDICATES FEW OR NO CLOUDS BELOW 12,000 FEET WITH NO
SIGNIFICANT WEATHER AND/OR OBSTRUCTIONS TO VISIBILITY.

NCZ001-053-055-056-065-067-060000-
WESTERN NORTH CAROLINA

CITY           SKY/WX    TMP DP  RH WIND       PRES   REMARKS
ASHEVILLE      CLOUDY    32  25  75 N29G39    30.14R WCI  18
JEFFERSON      CLOUDY    26  23  88 NW9G24    30.09R WCI  17
MORGANTON      CLOUDY    40  33  78 NW9G17    30.17R WCI  33
HICKORY        LGT RAIN  41  38  89 NE9       30.11R
RUTHERFORDTON  DRIZZLE   41  38  91 N8G18     30.11R
MOUNT AIRY     CLOUDY    35  30  83 N12G18    30.18R WCI  26
BOONE          LGT SNOW  27  26  97 NW22G35   30.09R WCI  13
$$

NCZ021-022-025-041-071-084-088-060000-
CENTRAL NORTH CAROLINA

CITY           SKY/WX    TMP DP  RH WIND       PRES   REMARKS
CHARLOTTE      LGT RAIN  42  38  85 NE14      30.09R
GREENSBORO     LGT RAIN  35  32  88 NE14      30.14R WCI  26
WINSTON-SALEM  LGT RAIN  36  33  89 NE10G21   30.16R WCI  28
RALEIGH-DURHAM CLOUDY    36  32  85 N10G16    30.16R WCI  28
FORT BRAGG     CLOUDY    39  37  93 N9G17     30.12R WCI  33
FAYETTEVILLE   CLOUDY    40  38  93 N13       30.09R WCI  32
BURLINGTON     LGT RAIN  35  30  82 N12G24    30.19R WCI  27
LAURINBURG     CLOUDY    41  39  93 NE13      30.10R
$$

NCZ011-015-027-028-043-044-047-080-103-060000-
NORTHEASTERN NORTH CAROLINA

CITY           SKY/WX    TMP DP  RH WIND       PRES   REMARKS
ROCKY MT-WILSO LGT RAIN  37  35  92 N14       30.13R WCI  28
GREENVILLE     LGT RAIN  36  36 100 NE6       30.11R WCI  31
WASHINGTON     RAIN      36  34  94 E9        30.06F WCI  29
ELIZABETH CITY HVY RAIN  36  34  93 N15       30.12F FOG     WCI  26
MANTEO         CLOUDY    35  34  96 NE20G36   30.10F WCI  24
CAPE HATTERAS  CLOUDY    37  37 100 N18G37    30.06R WCI  27
$$

NCZ078-087-090-091-093-098-101-060000-
SOUTHEASTERN NORTH CAROLINA

CITY           SKY/WX    TMP DP  RH WIND       PRES   REMARKS
LUMBERTON      LGT RAIN  42  32  67 N13       30.08R
GOLDSBORO      LGT RAIN  37  37 100 N9        30.07R WCI  31
KINSTON        MIX PCPN  37  36  93 E8        30.07F WCI  31
KENANSVILLE    LGT RAIN  38  37  98 E5        30.05S WCI  34
NEW BERN       LGT RAIN  38  35  89 NE17G30   30.12R FOG     WCI  28
CHERRY POINT   DRIZZLE   39  32  76 N20G36    30.13R WCI  29
BEAUFORT       LGT RAIN  40  39  97 N26G37    30.11R FOG     WCI  29
JACKSONVILLE   CLOUDY    41  36  82 N22G32    30.12R
WILMINGTON     CLOUDY    42  37  82 N20G30    30.06S
$$




USA.gov is the U.S. government's official web portal to all federal, state and local government web resources and services.